CAN1435 LEMD-SPJC

Flight info

Callsign CAN1435
Flight time N/A
Altitude 31000
Route CCS DCT ELVAR/N0494F350 DCT MANOX/M086F360 DCT 34N020W 29N030W 23N040W/M086F380 DCT QUETN/N0495F380 DCT 15N050W DCT TRAPP UM527 UMREM/N0492F400 UM527 VADOS
Aircraft A388/J-SADE2E3FGHIJ3J4J5M1RWXY/LB1D1

Departure

Time N/A
Airport Adolfo Suárez Madrid–Barajas Airport (LEMD)

Arrival

Time 2026-05-04 09:54
Airport Jorge Chávez International Airport (SPJC)
Time Latitude Longitude Altitude Speed Heading
2026-05-04 06:29 3.92777 -60.72429 40350 ft 483 kts 225°
2026-05-04 06:29 3.90376 -60.74761 40698 ft 482 kts 225°
2026-05-04 06:30 3.87960 -60.77107 40920 ft 485 kts 225°
2026-05-04 06:30 3.85541 -60.79465 40925 ft 481 kts 225°
2026-05-04 06:30 3.80821 -60.84158 40924 ft 479 kts 225°
2026-05-04 06:31 3.76134 -60.88828 40925 ft 479 kts 225°
2026-05-04 06:31 3.71421 -60.93510 40925 ft 478 kts 225°
2026-05-04 06:33 3.52281 -61.12088 40919 ft 480 kts 224°
2026-05-04 06:34 3.47467 -61.16716 40924 ft 481 kts 224°
2026-05-04 06:34 3.42631 -61.21366 40916 ft 482 kts 223°
2026-05-04 06:36 3.23249 -61.39995 40935 ft 485 kts 224°
2026-05-04 06:37 3.18386 -61.44667 40934 ft 485 kts 224°
2026-05-04 06:37 3.13520 -61.49342 40934 ft 485 kts 224°
2026-05-04 06:38 3.08655 -61.54015 40931 ft 485 kts 224°
2026-05-04 06:40 2.89246 -61.72651 40942 ft 483 kts 224°
2026-05-04 06:40 2.84395 -61.77310 40932 ft 483 kts 224°
2026-05-04 06:41 2.79543 -61.81971 40944 ft 482 kts 224°
2026-05-04 06:41 2.74708 -61.86612 40936 ft 481 kts 224°
2026-05-04 06:42 2.69904 -61.91223 40944 ft 481 kts 224°
2026-05-04 06:44 2.50613 -62.09734 40942 ft 480 kts 224°
2026-05-04 06:44 2.45799 -62.14353 40931 ft 480 kts 224°
2026-05-04 06:45 2.40971 -62.18984 40915 ft 481 kts 224°
2026-05-04 06:45 2.36165 -62.23594 40918 ft 482 kts 224°
2026-05-04 06:46 2.31361 -62.28201 40940 ft 483 kts 224°
2026-05-04 06:46 2.26504 -62.32856 40943 ft 483 kts 224°
2026-05-04 06:48 2.07113 -62.51525 40936 ft 484 kts 224°
2026-05-04 06:50 1.87732 -62.70224 40942 ft 483 kts 224°
2026-05-04 06:51 1.82886 -62.74898 40930 ft 484 kts 224°
2026-05-04 06:51 1.78043 -62.79570 40933 ft 484 kts 224°
2026-05-04 06:52 1.73206 -62.84236 40942 ft 484 kts 224°
2026-05-04 06:52 1.68384 -62.88886 40939 ft 485 kts 224°
2026-05-04 06:53 1.63523 -62.93574 40931 ft 486 kts 224°
2026-05-04 06:53 1.58662 -62.98262 40910 ft 487 kts 224°
2026-05-04 06:54 1.53787 -63.02962 40931 ft 488 kts 224°
2026-05-04 06:54 1.49684 -63.06918 40937 ft 488 kts 224°
2026-05-04 06:55 1.44823 -63.11604 40929 ft 490 kts 224°
2026-05-04 06:55 1.39909 -63.16341 40933 ft 491 kts 224°
2026-05-04 06:57 1.20225 -63.35316 40955 ft 492 kts 223°
2026-05-04 06:58 1.15323 -63.40074 40958 ft 491 kts 224°
2026-05-04 06:58 1.10427 -63.44848 40957 ft 491 kts 224°
2026-05-04 06:59 1.05543 -63.49603 40952 ft 491 kts 223°
2026-05-04 06:59 1.00680 -63.54325 40951 ft 490 kts 223°
2026-05-04 07:01 0.81097 -63.73232 40934 ft 489 kts 223°
2026-05-04 07:02 0.76208 -63.77955 40914 ft 489 kts 223°
2026-05-04 07:02 0.71325 -63.82672 40913 ft 488 kts 223°
2026-05-04 07:03 0.66443 -63.87387 40912 ft 488 kts 223°
2026-05-04 07:03 0.61557 -63.92106 40928 ft 488 kts 223°
2026-05-04 07:04 0.56665 -63.96831 40937 ft 489 kts 223°
2026-05-04 07:04 0.51776 -64.01552 40936 ft 489 kts 223°
2026-05-04 07:05 0.46891 -64.06270 40914 ft 489 kts 223°
2026-05-04 07:05 0.41994 -64.11000 40934 ft 489 kts 223°
2026-05-04 07:06 0.34659 -64.18083 40938 ft 489 kts 223°
2026-05-04 07:07 0.29768 -64.22807 40935 ft 489 kts 223°
2026-05-04 07:09 0.10229 -64.41676 40915 ft 490 kts 223°
2026-05-04 07:09 0.05364 -64.46394 40917 ft 490 kts 224°
2026-05-04 07:10 0.00507 -64.51189 40931 ft 491 kts 224°
2026-05-04 07:12 -0.18978 -64.70378 40941 ft 492 kts 224°
2026-05-04 07:12 -0.23858 -64.75181 40941 ft 492 kts 224°
2026-05-04 07:13 -0.28738 -64.79985 40946 ft 492 kts 224°
2026-05-04 07:13 -0.33603 -64.84773 40933 ft 491 kts 224°
2026-05-04 07:14 -0.45766 -64.96744 40944 ft 490 kts 224°
2026-05-04 07:15 -0.50619 -65.01521 40941 ft 489 kts 224°
2026-05-04 07:15 -0.55463 -65.06289 40939 ft 489 kts 224°
2026-05-04 07:16 -0.60283 -65.11034 40937 ft 489 kts 224°
2026-05-04 07:16 -0.65136 -65.15811 40942 ft 489 kts 224°
2026-05-04 07:17 -0.69985 -65.20584 40943 ft 490 kts 224°
2026-05-04 07:17 -0.74843 -65.25366 40922 ft 490 kts 224°
2026-05-04 07:18 -0.79708 -65.30155 40920 ft 491 kts 224°
2026-05-04 07:18 -0.84547 -65.34958 40923 ft 491 kts 226°
2026-05-04 07:19 -0.89095 -65.40066 40914 ft 492 kts 227°
2026-05-04 07:19 -0.93647 -65.45171 40921 ft 492 kts 227°
2026-05-04 07:20 -0.98201 -65.50277 40944 ft 493 kts 227°
2026-05-04 07:20 -1.02762 -65.55400 40950 ft 493 kts 227°
2026-05-04 07:22 -1.20994 -65.75884 40936 ft 494 kts 227°
2026-05-04 07:23 -1.25562 -65.81018 40938 ft 494 kts 227°
2026-05-04 07:23 -1.30140 -65.86162 40927 ft 495 kts 227°
2026-05-04 07:24 -1.34711 -65.91299 40924 ft 495 kts 227°
2026-05-04 07:24 -1.39284 -65.96438 40926 ft 495 kts 227°
2026-05-04 07:26 -1.57589 -66.17013 40947 ft 495 kts 227°
2026-05-04 07:27 -1.62174 -66.22169 40947 ft 496 kts 227°
2026-05-04 07:27 -1.66755 -66.27319 40945 ft 496 kts 227°
2026-05-04 07:28 -1.71334 -66.32467 40934 ft 496 kts 227°
2026-05-04 07:28 -1.75918 -66.37622 40949 ft 496 kts 227°
2026-05-04 07:29 -1.80499 -66.42774 40947 ft 496 kts 227°
2026-05-04 07:29 -1.85079 -66.47925 40946 ft 496 kts 227°
2026-05-04 07:30 -1.89667 -66.53085 40954 ft 495 kts 227°
2026-05-04 07:30 -1.94232 -66.58230 40949 ft 495 kts 227°
2026-05-04 07:31 -1.98792 -66.63380 40950 ft 494 kts 227°
2026-05-04 07:33 -2.16951 -66.83896 40927 ft 493 kts 227°
2026-05-04 07:33 -2.21499 -66.89036 40924 ft 493 kts 227°
2026-05-04 07:34 -2.26040 -66.94169 40925 ft 494 kts 227°
2026-05-04 07:34 -2.30572 -66.99293 40926 ft 494 kts 227°
2026-05-04 07:35 -2.35180 -67.04406 40919 ft 495 kts 226°
2026-05-04 07:35 -2.39857 -67.09456 40927 ft 495 kts 226°
2026-05-04 07:36 -2.44528 -67.14520 40945 ft 496 kts 226°
2026-05-04 07:38 -2.63685 -67.34272 40925 ft 495 kts 224°
2026-05-04 07:38 -2.68535 -67.39165 40926 ft 495 kts 224°
2026-05-04 07:39 -2.73380 -67.44056 40928 ft 495 kts 224°
2026-05-04 07:39 -2.78222 -67.48957 40939 ft 495 kts 224°
2026-05-04 07:40 -2.83053 -67.53862 40951 ft 495 kts 224°
2026-05-04 07:40 -2.87882 -67.58762 40937 ft 494 kts 224°
2026-05-04 07:41 -2.92709 -67.63661 40948 ft 494 kts 224°
2026-05-04 07:41 -2.97537 -67.68560 40925 ft 494 kts 224°
2026-05-04 07:42 -3.02348 -67.73442 40919 ft 493 kts 224°
2026-05-04 07:42 -3.06353 -67.77507 40940 ft 493 kts 224°
2026-05-04 07:43 -3.11168 -67.82395 40947 ft 493 kts 224°
2026-05-04 07:43 -3.16010 -67.87312 40923 ft 493 kts 224°
2026-05-04 07:44 -3.20792 -67.92168 40922 ft 493 kts 224°
2026-05-04 07:44 -3.25604 -67.97054 40925 ft 493 kts 225°
2026-05-04 07:45 -3.30416 -68.01942 40944 ft 493 kts 225°
2026-05-04 07:45 -3.35242 -68.06845 40949 ft 493 kts 225°
2026-05-04 07:46 -3.40064 -68.11744 40948 ft 494 kts 225°
2026-05-04 07:46 -3.44882 -68.16641 40929 ft 494 kts 225°
2026-05-04 07:47 -3.49704 -68.21541 40927 ft 494 kts 225°
2026-05-04 07:49 -3.69009 -68.41170 40939 ft 494 kts 225°
2026-05-04 07:49 -3.73800 -68.46043 40933 ft 494 kts 225°
2026-05-04 07:50 -3.78613 -68.50940 40931 ft 494 kts 225°
2026-05-04 07:50 -3.83438 -68.55849 40935 ft 494 kts 225°
2026-05-04 07:51 -3.88255 -68.60752 40956 ft 494 kts 225°
2026-05-04 07:51 -3.93077 -68.65659 40958 ft 494 kts 225°
2026-05-04 07:52 -3.97894 -68.70563 40940 ft 494 kts 225°
2026-05-04 07:52 -4.02711 -68.75468 40931 ft 494 kts 225°
2026-05-04 07:54 -4.21927 -68.95073 40950 ft 494 kts 225°
2026-05-04 07:55 -4.26758 -69.00003 40939 ft 495 kts 225°
2026-05-04 07:55 -4.31575 -69.04920 40939 ft 495 kts 225°
2026-05-04 07:56 -4.36397 -69.09843 40938 ft 496 kts 225°
2026-05-04 07:56 -4.41239 -69.14787 40963 ft 496 kts 225°
2026-05-04 07:57 -4.46071 -69.19724 40952 ft 496 kts 225°
2026-05-04 07:57 -4.50903 -69.24659 40953 ft 496 kts 225°
2026-05-04 07:58 -4.55744 -69.29606 40958 ft 496 kts 225°
2026-05-04 07:58 -4.60579 -69.34547 40963 ft 496 kts 225°
2026-05-04 07:59 -4.65404 -69.39479 40960 ft 496 kts 225°
2026-05-04 07:59 -4.70240 -69.44423 40934 ft 496 kts 225°
2026-05-04 08:00 -4.75070 -69.49360 40930 ft 496 kts 225°
2026-05-04 08:02 -4.94340 -69.69062 40933 ft 495 kts 226°
2026-05-04 08:02 -4.99168 -69.74004 40934 ft 495 kts 226°
2026-05-04 08:03 -5.03992 -69.78943 40940 ft 496 kts 226°
2026-05-04 08:03 -5.08820 -69.83888 40950 ft 497 kts 226°
2026-05-04 08:04 -5.13657 -69.88842 40932 ft 497 kts 226°
2026-05-04 08:04 -5.18505 -69.93809 40944 ft 498 kts 226°
2026-05-04 08:05 -5.23362 -69.98786 40952 ft 499 kts 226°
2026-05-04 08:05 -5.28197 -70.03742 40941 ft 500 kts 226°
2026-05-04 08:06 -5.33099 -70.08768 40949 ft 500 kts 226°
2026-05-04 08:06 -5.37961 -70.13753 40952 ft 500 kts 226°
2026-05-04 08:08 -5.57364 -70.33663 40942 ft 498 kts 226°
2026-05-04 08:11 -5.79145 -70.56037 40931 ft 497 kts 226°
2026-05-04 08:11 -5.86393 -70.63488 40934 ft 497 kts 226°
2026-05-04 08:12 -5.91202 -70.68433 40942 ft 497 kts 226°
2026-05-04 08:12 -5.96025 -70.73395 40933 ft 497 kts 226°
2026-05-04 08:13 -6.00865 -70.78374 40936 ft 497 kts 226°
2026-05-04 08:13 -6.05698 -70.83348 40927 ft 497 kts 226°
2026-05-04 08:14 -6.10521 -70.88313 40933 ft 497 kts 226°
2026-05-04 08:16 -6.29804 -71.08177 40936 ft 496 kts 226°
2026-05-04 08:16 -6.34620 -71.13141 40940 ft 496 kts 226°
2026-05-04 08:17 -6.39426 -71.18097 40940 ft 496 kts 226°
2026-05-04 08:17 -6.44241 -71.23061 40931 ft 496 kts 226°
2026-05-04 08:19 -6.63464 -71.42890 40929 ft 495 kts 226°
2026-05-04 08:20 -6.68269 -71.47856 40929 ft 495 kts 226°
2026-05-04 08:20 -6.73070 -71.52819 40923 ft 494 kts 226°
2026-05-04 08:21 -6.77859 -71.57772 40911 ft 494 kts 226°
2026-05-04 08:21 -6.82649 -71.62726 40911 ft 494 kts 226°
2026-05-04 08:22 -6.87439 -71.67682 40911 ft 494 kts 226°
2026-05-04 08:24 -7.06569 -71.87490 40932 ft 494 kts 226°
2026-05-04 08:24 -7.11354 -71.92449 40944 ft 494 kts 226°
2026-05-04 08:25 -7.16149 -71.97419 40946 ft 494 kts 226°
2026-05-04 08:25 -7.20942 -72.02389 40930 ft 494 kts 226°
2026-05-04 08:27 -7.40114 -72.22285 40938 ft 495 kts 226°
2026-05-04 08:28 -7.44912 -72.27270 40921 ft 495 kts 226°
2026-05-04 08:28 -7.49712 -72.32256 40922 ft 495 kts 226°
2026-05-04 08:29 -7.54505 -72.37238 40929 ft 496 kts 226°
2026-05-04 08:31 -7.72880 -72.56352 40939 ft 495 kts 227°
2026-05-04 08:33 -7.92003 -72.76268 40935 ft 494 kts 227°
2026-05-04 08:35 -8.11090 -72.96176 40943 ft 493 kts 227°
2026-05-04 08:35 -8.15862 -73.01157 40942 ft 494 kts 227°
2026-05-04 08:37 -8.32552 -73.18594 40974 ft 493 kts 227°
2026-05-04 08:38 -8.37319 -73.23579 40959 ft 493 kts 227°
2026-05-04 08:38 -8.42082 -73.28561 40957 ft 493 kts 227°
2026-05-04 08:40 -8.60845 -73.48635 40949 ft 492 kts 228°
2026-05-04 08:41 -8.65518 -73.53679 40947 ft 492 kts 228°
2026-05-04 08:41 -8.70190 -73.58722 40813 ft 490 kts 228°
2026-05-04 08:41 -8.72527 -73.61246 40942 ft 493 kts 228°
2026-05-04 08:42 -8.74876 -73.63784 40945 ft 494 kts 228°
2026-05-04 08:42 -8.79582 -73.68868 40953 ft 495 kts 228°
2026-05-04 08:43 -8.84266 -73.73932 40954 ft 495 kts 228°
2026-05-04 08:43 -8.88973 -73.79022 40954 ft 496 kts 229°
2026-05-04 08:44 -8.93681 -73.84114 40955 ft 496 kts 229°
2026-05-04 08:46 -9.12481 -74.04473 40951 ft 496 kts 229°
2026-05-04 08:46 -9.17228 -74.09619 40953 ft 497 kts 229°
2026-05-04 08:47 -9.21937 -74.14727 40956 ft 497 kts 229°
2026-05-04 08:47 -9.26665 -74.19857 40962 ft 498 kts 229°
2026-05-04 08:48 -9.31356 -74.24948 40966 ft 498 kts 229°
2026-05-04 08:48 -9.36087 -74.30085 40976 ft 499 kts 229°
2026-05-04 08:49 -9.40819 -74.35226 40976 ft 499 kts 229°
2026-05-04 08:50 -9.57393 -74.53249 40986 ft 500 kts 229°
2026-05-04 08:51 -9.62130 -74.58405 40987 ft 500 kts 229°
2026-05-04 08:51 -9.66875 -74.63571 40985 ft 500 kts 229°
2026-05-04 08:52 -9.71595 -74.68714 40984 ft 501 kts 229°
2026-05-04 08:52 -9.76351 -74.73898 40980 ft 501 kts 229°
2026-05-04 08:54 -9.95348 -74.94626 40973 ft 502 kts 229°
2026-05-04 08:55 -10.00113 -74.99832 40978 ft 502 kts 229°
2026-05-04 08:55 -10.04870 -75.05031 40974 ft 502 kts 229°
2026-05-04 09:01 -10.54606 -75.59536 41136 ft 500 kts 229°
2026-05-04 09:01 -10.59334 -75.64731 41158 ft 500 kts 229°
2026-05-04 09:02 -10.64058 -75.69926 41183 ft 499 kts 229°
2026-05-04 09:02 -10.68770 -75.75108 41189 ft 498 kts 229°
2026-05-04 09:03 -10.73480 -75.80293 41208 ft 498 kts 229°
2026-05-04 09:03 -10.78190 -75.85479 41223 ft 499 kts 229°
2026-05-04 09:04 -10.82872 -75.90636 41243 ft 499 kts 229°
2026-05-04 09:04 -10.87585 -75.95831 41256 ft 499 kts 229°
2026-05-04 09:05 -10.92290 -76.01019 41268 ft 498 kts 229°
2026-05-04 09:05 -10.96615 -76.06510 41277 ft 494 kts 240°
2026-05-04 09:06 -10.99672 -76.12722 41279 ft 490 kts 249°
2026-05-04 09:08 -11.10426 -76.38232 41263 ft 490 kts 249°
2026-05-04 09:08 -11.13094 -76.44574 41246 ft 490 kts 249°
2026-05-04 09:09 -11.15774 -76.50951 41223 ft 489 kts 249°
2026-05-04 09:09 -11.18454 -76.57332 41204 ft 489 kts 249°
2026-05-04 09:10 -11.21128 -76.63702 41176 ft 489 kts 249°
2026-05-04 09:10 -11.23805 -76.70082 41147 ft 489 kts 249°
2026-05-04 09:11 -11.26451 -76.76394 41115 ft 488 kts 249°
2026-05-04 09:11 -11.29119 -76.82767 41082 ft 488 kts 249°
2026-05-04 09:12 -11.31779 -76.89125 41057 ft 487 kts 249°
2026-05-04 09:14 -11.42498 -77.14472 40965 ft 488 kts 241°
2026-05-04 09:14 -11.46835 -77.19797 40954 ft 493 kts 221°
2026-05-04 09:15 -11.52346 -77.23905 40949 ft 494 kts 217°
2026-05-04 09:15 -11.58039 -77.27898 40950 ft 495 kts 208°
2026-05-04 09:15 -11.61187 -77.29227 40949 ft 497 kts 197°
2026-05-04 09:17 -11.85241 -77.20702 40949 ft 500 kts 145°
2026-05-04 09:18 -11.91178 -77.16988 40947 ft 501 kts 151°
2026-05-04 09:18 -11.97396 -77.13763 40949 ft 501 kts 154°
2026-05-04 09:19 -12.03681 -77.10653 40951 ft 501 kts 154°
2026-05-04 09:19 -12.09924 -77.07565 40949 ft 501 kts 154°
2026-05-04 09:20 -12.16226 -77.04440 40951 ft 501 kts 154°
2026-05-04 09:20 -12.22495 -77.01331 40946 ft 500 kts 154°
2026-05-04 09:21 -12.28718 -76.98244 40952 ft 500 kts 154°
2026-05-04 09:21 -12.34984 -76.95135 40950 ft 499 kts 154°
2026-05-04 09:22 -12.41240 -76.92032 40947 ft 499 kts 154°
2026-05-04 09:22 -12.47494 -76.88931 40950 ft 500 kts 154°
2026-05-04 09:23 -12.53753 -76.85827 40948 ft 500 kts 154°
2026-05-04 09:23 -12.60013 -76.82723 40952 ft 500 kts 154°
2026-05-04 09:25 -12.85079 -76.70295 40957 ft 502 kts 154°
2026-05-04 09:26 -12.91362 -76.67181 40958 ft 502 kts 154°
2026-05-04 09:26 -12.97661 -76.64059 40953 ft 502 kts 154°
2026-05-04 09:27 -13.03940 -76.60946 40954 ft 503 kts 154°
2026-05-04 09:27 -13.10261 -76.57814 40953 ft 503 kts 154°
2026-05-04 09:28 -13.16558 -76.54694 40948 ft 503 kts 154°
2026-05-04 09:28 -13.23156 -76.52374 40921 ft 502 kts 173°
2026-05-04 09:29 -13.26626 -76.52175 40639 ft 498 kts 184°
2026-05-04 09:29 -13.30018 -76.52612 39889 ft 500 kts 194°
2026-05-04 09:29 -13.33384 -76.53725 38885 ft 506 kts 205°
2026-05-04 09:29 -13.36487 -76.55471 37657 ft 513 kts 217°
2026-05-04 09:30 -13.39205 -76.57784 36531 ft 516 kts 228°
2026-05-04 09:30 -13.41487 -76.60620 35500 ft 516 kts 239°
2026-05-04 09:30 -13.43219 -76.63852 34478 ft 515 kts 250°
2026-05-04 09:30 -13.44324 -76.67329 33388 ft 513 kts 261°
2026-05-04 09:31 -13.44748 -76.70949 32516 ft 506 kts 272°
2026-05-04 09:31 -13.44486 -76.74502 31831 ft 495 kts 282°
2026-05-04 09:31 -13.43575 -76.77879 31139 ft 486 kts 293°
2026-05-04 09:31 -13.42070 -76.80949 30439 ft 479 kts 303°
2026-05-04 09:32 -13.40035 -76.83628 29683 ft 473 kts 314°
2026-05-04 09:32 -13.37582 -76.85774 28890 ft 469 kts 326°
2026-05-04 09:34 -13.15840 -76.89596 23645 ft 448 kts 356°
2026-05-04 09:34 -13.12746 -76.89841 22846 ft 445 kts 356°
2026-05-04 09:34 -13.09658 -76.90100 22036 ft 442 kts 356°
2026-05-04 09:34 -13.06603 -76.90365 21248 ft 439 kts 356°
2026-05-04 09:35 -13.03570 -76.90635 20493 ft 435 kts 356°
2026-05-04 09:35 -13.00574 -76.90912 19759 ft 432 kts 356°
2026-05-04 09:35 -12.97589 -76.91203 19039 ft 428 kts 356°
2026-05-04 09:35 -12.94638 -76.91501 18325 ft 424 kts 356°
2026-05-04 09:37 -12.75567 -76.95381 14208 ft 377 kts 335°
2026-05-04 09:37 -12.73242 -76.96539 13938 ft 365 kts 335°
2026-05-04 09:38 -12.71004 -76.97652 13829 ft 350 kts 335°
2026-05-04 09:38 -12.68856 -76.98720 13707 ft 337 kts 335°
2026-05-04 09:38 -12.66786 -76.99750 13592 ft 324 kts 335°
2026-05-04 09:38 -12.64781 -77.00747 13317 ft 318 kts 335°
2026-05-04 09:39 -12.62799 -77.01730 12956 ft 315 kts 335°
2026-05-04 09:39 -12.60830 -77.02702 12597 ft 313 kts 335°
2026-05-04 09:39 -12.58864 -77.03595 12299 ft 307 kts 339°
2026-05-04 09:39 -12.56881 -77.04367 12098 ft 300 kts 340°
2026-05-04 09:40 -12.54967 -77.05105 11997 ft 289 kts 340°
2026-05-04 09:40 -12.53123 -77.05816 11908 ft 278 kts 340°
2026-05-04 09:40 -12.51338 -77.06503 11747 ft 271 kts 340°
2026-05-04 09:40 -12.49578 -77.07179 11452 ft 269 kts 340°
2026-05-04 09:41 -12.47828 -77.07850 11169 ft 268 kts 340°
2026-05-04 09:42 -12.35657 -77.11820 9226 ft 257 kts 344°
2026-05-04 09:43 -12.33978 -77.12310 8947 ft 256 kts 344°
2026-05-04 09:43 -12.32274 -77.12808 8665 ft 254 kts 344°
2026-05-04 09:43 -12.30576 -77.13304 8394 ft 253 kts 344°
2026-05-04 09:43 -12.28899 -77.13732 8120 ft 251 kts 348°
2026-05-04 09:44 -12.27192 -77.14102 7848 ft 250 kts 348°
2026-05-04 09:44 -12.25495 -77.14468 7582 ft 249 kts 348°
2026-05-04 09:44 -12.23808 -77.14832 7326 ft 247 kts 348°
2026-05-04 09:46 -12.12230 -77.17353 5493 ft 240 kts 348°
2026-05-04 09:46 -12.10605 -77.17711 5234 ft 239 kts 348°
2026-05-04 09:46 -12.08987 -77.18069 5033 ft 238 kts 348°
2026-05-04 09:47 -12.07372 -77.18428 4990 ft 237 kts 348°
2026-05-04 09:47 -12.05758 -77.18786 4992 ft 238 kts 348°
2026-05-04 09:49 -11.94714 -77.22287 4993 ft 239 kts 337°
2026-05-04 09:49 -11.93191 -77.22960 4991 ft 239 kts 337°
2026-05-04 09:49 -11.91668 -77.23634 4993 ft 238 kts 337°
2026-05-04 09:51 -11.84920 -77.21072 3675 ft 240 kts 114°
2026-05-04 09:51 -11.85942 -77.19740 3360 ft 241 kts 140°
2026-05-04 09:51 -11.87318 -77.18813 2995 ft 240 kts 151°
2026-05-04 09:51 -11.88809 -77.18043 2648 ft 240 kts 155°
2026-05-04 09:52 -11.90311 -77.17305 2325 ft 239 kts 153°
2026-05-04 09:52 -11.91801 -77.16573 2001 ft 237 kts 154°
2026-05-04 09:52 -11.93279 -77.15835 1696 ft 235 kts 154°
2026-05-04 09:52 -11.94723 -77.15123 1399 ft 222 kts 154°
2026-05-04 09:53 -11.96013 -77.14484 1104 ft 189 kts 154°
2026-05-04 09:53 -11.97112 -77.13939 875 ft 166 kts 154°
2026-05-04 09:53 -11.98129 -77.13436 664 ft 159 kts 155°
2026-05-04 09:53 -11.99093 -77.12955 424 ft 148 kts 154°
2026-05-04 09:54 -12.00012 -77.12496 176 ft 154 kts 156°
2026-05-04 09:54 -12.00982 -77.12023 86 ft 148 kts 155°
2026-05-04 09:54 -12.01827 -77.11616 66 ft 111 kts 154°
2026-05-04 09:54 -12.02298 -77.11381 87 ft 39 kts 153°
2026-05-04 09:55 -12.02460 -77.11300 97 ft 23 kts 154°
2026-05-04 09:55 -12.02602 -77.11229 99 ft 22 kts 154°
2026-05-04 09:55 -12.02734 -77.11164 103 ft 20 kts 154°
2026-05-04 09:55 -12.02860 -77.11101 106 ft 20 kts 154°
2026-05-04 09:56 -12.02985 -77.11039 108 ft 19 kts 154°
2026-05-04 09:56 -12.03106 -77.10979 111 ft 20 kts 154°
2026-05-04 09:56 -12.03232 -77.10916 114 ft 20 kts 154°
2026-05-04 09:56 -12.03355 -77.10855 116 ft 19 kts 154°
2026-05-04 09:57 -12.03476 -77.10796 123 ft 19 kts 155°
2026-05-04 09:57 -12.03596 -77.10757 125 ft 16 kts 203°
2026-05-04 09:57 -12.03660 -77.10848 121 ft 17 kts 272°
2026-05-04 09:57 -12.03570 -77.10928 115 ft 20 kts 338°
2026-05-04 09:58 -12.03426 -77.10997 108 ft 25 kts 334°
2026-05-04 09:58 -12.03269 -77.11073 106 ft 25 kts 334°
2026-05-04 09:58 -12.03169 -77.11126 104 ft 8 kts 295°
2026-05-04 10:00 -12.03040 -77.11320 86 ft 0 kts 245°